GFSGL_sfc_wetblb_003.txt.gz
Wetbulb
48.05 46.26 44.66 43.91 42.96 42.34 41.86 42.18 42.36 42.37 41.76 41.03 40.67 40.64 40.59 40.34 40.64 40.60 40.60 41.11 40.95 41.30 42.29 42.41 42.58 43.98 43.30 44.04 44.54 44.59 43.20 43.16 39.76 42.80 44.98 46.60 47.07 49.86 49.63 49.98 50.26 49.70 50.65
45.72 44.21 42.84 42.63 41.92 41.52 41.49 41.86 42.14 40.98 41.14 40.52 40.47 39.92 39.46 39.28 39.33 38.69 38.60 38.84 39.00 38.89 40.03 40.64 40.76 41.57 42.27 43.27 43.15 42.92 43.03 43.55 41.30 39.28 43.06 43.73 45.27 47.87 48.46 48.60 47.95 49.26 48.84
43.97 42.96 41.86 41.23 41.07 41.07 40.98 41.34 41.21 40.31 40.27 40.16 39.58 38.55 38.26 38.17 37.87 38.19 37.69 37.73 37.92 38.39 38.88 39.10 39.39 39.95 39.74 40.79 41.39 41.57 42.44 42.59 42.38 40.36 40.18 43.30 43.70 45.67 46.35 47.48 47.34 47.75 47.21
42.76 42.16 41.91 41.76 41.14 41.16 40.84 40.49 40.47 40.38 39.28 38.77 38.41 37.76 37.53 37.35 37.21 37.00 36.70 36.66 37.20 37.14 37.39 37.12 36.37 36.88 37.15 37.94 38.80 39.63 40.80 40.57 40.86 40.20 39.96 40.40 42.14 43.84 44.90 44.22 42.03 43.31 43.25
42.52 41.99 41.55 41.92 41.68 40.85 40.28 40.05 39.87 39.25 38.22 37.58 36.86 36.97 37.01 36.89 36.20 36.18 35.78 34.89 34.50 33.71 33.82 33.24 34.10 34.72 34.77 34.89 35.20 35.56 36.53 37.88 39.04 38.86 38.40 39.26 39.67 39.97 40.56 43.64 42.24 41.48 38.80
43.20 41.82 41.50 41.13 40.21 39.49 39.25 38.81 38.31 37.14 36.68 36.46 35.95 35.83 35.32 35.29 34.27 33.88 33.21 32.71 31.53 30.22 30.01 31.28 32.59 32.86 33.19 33.15 33.23 33.36 33.67 34.37 33.88 35.68 37.49 37.40 38.87 40.41 42.07 41.87 41.71 36.75 35.65
41.51 40.78 40.40 39.22 38.38 38.14 38.11 37.63 36.13 35.75 35.85 35.26 35.00 34.83 34.11 34.64 33.68 33.08 31.79 31.05 30.26 30.03 29.78 31.01 31.70 32.56 32.99 33.57 33.18 32.89 32.67 32.61 31.55 33.63 31.93 35.28 38.06 40.79 41.79 40.85 41.11 38.27 38.21
40.70 39.78 39.01 38.50 37.39 37.50 36.96 35.62 35.39 35.25 34.41 33.95 33.75 33.66 33.19 33.13 31.96 31.47 30.92 30.16 29.54 29.74 30.27 31.06 31.38 32.02 32.67 33.03 33.44 33.63 34.08 34.96 35.10 34.14 34.14 35.34 37.38 40.59 40.40 40.52 41.59 39.89 33.99
38.71 38.00 38.04 37.52 36.78 36.05 34.80 34.51 34.55 33.73 33.36 32.96 32.60 31.93 30.71 30.58 30.44 30.63 29.85 30.87 30.29 30.43 30.98 31.56 32.07 32.12 32.19 32.46 31.78 31.00 31.93 33.61 35.56 35.33 35.51 35.40 35.25 35.44 36.22 37.57 37.39 35.35 30.63
37.87 37.36 37.47 37.28 35.97 34.79 34.35 33.58 33.60 33.42 32.10 32.38 30.44 30.66 29.80 29.85 30.85 31.14 31.31 31.37 30.78 30.90 31.33 31.99 31.09 30.77 31.05 31.40 31.48 31.05 30.10 31.63 32.77 33.91 35.43 35.14 35.37 36.21 34.22 36.16 35.91 36.48 32.95
37.11 37.28 36.59 36.46 35.44 34.72 33.38 33.41 32.72 31.92 31.25 31.19 30.84 31.03 30.70 31.55 32.13 32.63 32.78 32.23 31.24 30.23 30.03 31.38 33.19 32.07 31.95 31.81 31.69 31.64 31.41 32.62 32.16 32.58 33.27 35.44 35.13 37.08 37.46 39.12 37.20 36.48 34.06
36.78 36.06 35.62 35.55 34.55 33.35 32.70 32.03 31.68 30.73 31.04 29.71 29.52 29.70 31.79 31.92 32.12 32.23 31.28 31.68 30.84 29.94 29.53 30.33 31.55 31.97 31.75 30.51 29.70 29.99 31.67 31.66 32.10 32.64 33.47 33.68 34.59 35.21 37.42 38.91 39.67 39.01 36.52
35.36 34.96 34.79 34.44 33.44 32.64 30.88 30.51 29.93 30.29 28.82 28.35 28.02 27.88 29.02 31.05 31.77 30.97 30.56 30.55 30.99 30.15 31.25 30.90 30.39 29.87 29.79 29.48 29.36 29.18 29.25 31.54 31.26 30.97 31.81 33.70 35.68 37.25 37.51 37.53 36.68 32.92 32.14
34.02 33.56 33.45 32.49 30.94 31.30 30.89 30.65 29.65 28.17 27.47 26.72 26.39 26.73 27.52 28.38 29.09 29.96 30.36 30.99 29.65 30.17 30.40 30.72 30.18 29.56 30.26 30.90 31.99 33.28 30.87 32.40 31.60 31.19 32.38 34.88 36.85 36.35 35.88 36.10 31.92 30.06 28.79
32.78 32.06 32.05 31.19 29.92 29.55 29.95 29.91 28.83 29.52 28.19 26.61 26.73 27.14 26.41 25.72 27.32 29.57 29.62 28.74 29.27 29.19 28.74 31.08 30.43 29.88 29.80 31.11 33.41 32.88 32.19 33.01 31.91 32.39 33.31 34.10 34.11 34.64 34.05 32.74 30.13 29.71 25.96
30.77 31.24 30.57 28.79 29.17 29.41 28.89 28.51 29.47 29.26 28.57 28.03 28.09 28.15 28.19 27.38 29.14 29.93 30.58 30.78 29.44 29.57 29.91 28.35 27.95 27.97 27.29 28.36 30.54 31.51 32.42 31.78 32.45 33.05 32.80 34.46 33.27 32.20 30.80 31.56 30.72 29.78 26.69
28.65 28.49 28.42 28.34 28.76 27.99 27.56 26.27 24.19 27.99 28.56 28.50 28.12 27.48 27.44 27.94 29.87 29.98 30.12 30.12 29.67 29.89 28.20 27.22 26.48 26.94 27.13 26.82 27.62 28.62 30.20 32.79 33.66 33.46 34.01 33.54 32.79 31.15 29.49 29.44 30.61 28.37 26.81
28.18 27.15 28.41 28.44 28.45 27.77 26.58 25.89 25.91 25.18 24.83 26.42 27.84 26.94 26.42 27.96 28.93 29.02 29.83 30.18 28.70 29.46 27.58 26.70 26.89 26.30 25.74 26.12 26.79 26.86 28.55 29.03 29.51 30.04 31.30 32.41 32.32 30.91 29.83 28.75 29.23 28.32 27.97
28.14 28.68 27.38 27.52 27.99 27.06 27.12 26.90 25.69 25.37 24.89 24.95 25.78 25.51 25.34 27.66 28.23 27.55 27.82 28.17 27.13 27.87 28.07 27.10 27.29 26.48 26.41 26.33 26.02 26.92 27.66 28.23 28.89 28.81 28.75 29.01 30.26 30.17 29.76 29.75 28.72 28.15 27.16
30.81 26.03 25.66 27.03 27.49 27.34 26.73 25.78 24.71 24.44 24.25 24.42 23.99 22.35 23.89 25.33 25.20 25.26 25.57 25.87 26.33 26.96 27.80 27.62 28.43 28.19 27.80 26.92 27.56 27.01 26.37 26.84 28.04 27.33 28.29 28.64 28.63 28.92 27.50 27.04 26.68 25.43 25.32
30.77 29.59 25.90 27.71 26.99 26.39 25.92 25.23 24.30 24.38 23.85 24.03 23.63 23.83 23.06 23.49 22.72 23.14 22.76 22.86 23.30 24.22 25.78 27.04 27.28 27.90 28.12 27.89 26.83 26.21 25.62 26.00 26.35 27.05 27.02 26.52 26.07 24.65 25.81 26.41 25.90 22.50 21.96
29.00 28.34 27.78 26.90 26.57 26.08 24.77 25.10 24.38 23.66 23.95 23.27 23.18 23.56 22.93 22.83 22.07 21.57 21.71 21.89 22.36 23.13 23.91 24.97 25.90 26.74 27.04 27.23 27.06 26.49 25.88 25.40 25.15 25.57 25.64 25.92 25.43 24.97 23.74 22.31 21.52 21.57 21.49
28.30 27.40 26.60 26.64 26.09 25.07 25.19 24.71 24.05 23.23 23.40 23.16 22.95 21.68 21.56 21.04 20.86 20.68 20.88 21.84 21.51 21.93 23.05 22.58 22.33 23.46 26.21 26.70 27.24 27.13 25.59 25.37 26.35 27.24 25.86 25.39 24.78 24.24 23.91 22.59 21.83 20.79 19.96
27.81 26.37 25.69 25.95 25.61 24.10 24.40 23.65 23.22 22.81 22.09 22.58 22.09 21.59 20.79 20.55 20.08 19.89 19.96 20.60 20.81 20.70 19.83 20.76 20.70 19.49 20.12 21.44 23.50 25.26 26.31 27.39 27.63 27.08 26.92 25.58 24.59 24.26 23.86 22.76 21.78 20.91 21.00
26.62 25.92 25.31 24.76 24.43 23.89 24.01 22.99 22.60 22.49 22.27 21.47 20.79 20.81 20.25 19.87 19.29 19.09 19.11 19.21 18.89 18.97 18.42 17.98 17.66 17.70 17.01 16.36 17.26 18.65 20.70 23.77 26.07 26.32 26.12 25.26 24.30 23.66 22.74 21.99 21.47 19.75 19.66
26.49 25.74 24.97 24.57 24.13 23.68 22.86 22.42 22.17 21.73 21.22 20.67 20.50 19.90 19.77 18.82 18.48 18.04 17.82 17.57 17.42 17.45 17.17 17.41 16.93 15.39 14.83 14.70 14.19 14.51 16.12 18.76 22.55 24.36 25.73 24.66 23.42 22.44 21.90 21.02 19.73 18.78 18.05

GFSGL_sfc_wetblb_006.txt.gz
Wetbulb
47.81 47.39 44.91 44.37 44.04 42.90 42.23 41.67 41.33 41.55 41.10 40.82 40.27 39.33 39.11 38.59 38.35 37.34 36.96 37.39 36.77 36.66 37.34 37.16 37.11 38.11 37.70 38.23 38.87 38.96 38.61 38.76 35.89 38.31 40.72 40.93 39.08 39.43 41.33 46.57 47.76 47.45 49.05
46.57 44.49 43.38 42.88 42.37 41.21 41.10 41.36 41.75 40.63 40.92 40.27 39.60 39.07 38.49 37.95 37.45 36.51 35.79 36.26 35.71 35.04 35.47 35.59 35.68 37.90 36.27 37.08 37.43 37.03 37.45 38.20 37.15 35.40 38.40 39.22 38.65 38.45 39.33 39.91 45.50 46.95 45.54
44.01 42.90 41.73 41.13 40.84 40.47 40.72 41.16 40.59 40.35 39.57 39.27 38.94 37.76 37.31 36.76 36.21 35.87 35.70 35.26 34.78 34.76 34.71 34.29 34.59 35.04 34.30 35.15 35.80 35.95 36.64 38.18 37.39 36.58 36.37 38.85 39.10 37.73 36.73 37.80 39.56 43.36 45.41
42.98 41.92 40.88 40.08 40.91 41.08 40.92 40.48 40.07 39.60 38.77 37.94 37.53 36.89 36.22 35.65 35.74 35.53 35.14 34.12 33.75 34.02 34.31 34.14 33.96 33.46 32.96 32.90 33.43 33.30 34.46 34.04 34.92 34.99 35.75 36.47 37.26 37.99 36.18 34.18 34.53 38.45 39.30
42.14 41.33 41.70 42.35 41.96 41.05 40.48 39.64 39.12 38.50 37.88 37.02 35.78 34.98 34.94 35.12 35.45 33.76 33.31 31.97 31.26 31.16 31.77 32.02 31.62 32.23 34.05 33.30 32.19 31.29 31.46 31.63 32.42 33.15 33.66 34.73 34.89 34.81 33.42 34.50 34.01 34.91 37.00
41.80 42.39 42.83 41.78 41.34 39.61 39.02 37.97 37.64 36.77 35.48 34.69 33.75 33.63 33.02 34.61 34.59 34.72 33.39 30.33 30.06 29.67 29.16 29.99 30.08 31.54 31.41 32.44 32.47 32.67 32.09 29.69 29.24 30.12 31.33 32.38 33.13 34.43 34.78 33.67 32.92 31.33 34.58
42.07 40.87 40.28 40.49 39.07 37.94 37.92 36.89 35.40 33.36 33.55 32.32 32.28 32.41 31.66 31.98 34.33 33.89 32.59 29.46 28.54 28.37 28.00 28.28 28.96 30.63 31.11 30.83 31.46 32.23 32.27 32.55 31.13 30.08 27.90 29.30 31.04 32.25 34.68 32.78 32.13 32.09 35.43
39.86 39.93 40.57 39.04 37.47 36.95 36.24 34.78 32.79 32.25 31.47 31.16 31.01 31.18 30.32 31.23 32.18 31.95 31.26 28.83 28.60 28.58 28.52 28.58 28.38 28.52 29.60 30.26 30.11 30.15 31.25 32.25 32.69 32.29 30.86 30.78 31.29 32.77 33.67 35.10 34.27 33.42 34.17
39.57 38.72 38.10 37.17 35.95 35.55 33.70 31.67 31.70 30.88 30.59 30.24 29.97 29.45 28.86 28.70 31.33 31.12 30.44 29.11 29.49 29.12 29.70 29.68 29.71 29.06 30.57 32.09 30.35 29.79 29.45 30.05 33.72 35.09 34.93 34.48 34.24 33.94 33.94 33.19 31.27 32.23 31.97
38.63 37.57 37.00 36.73 35.34 33.72 32.07 30.55 30.56 30.28 29.11 29.25 28.94 29.46 30.26 28.15 30.65 31.59 31.43 30.57 29.79 29.61 30.46 31.21 31.72 31.68 31.60 31.39 29.92 29.27 28.03 28.82 30.19 30.49 31.03 32.88 34.49 33.74 34.28 33.42 31.62 30.19 31.10
37.05 36.63 36.39 35.82 34.07 33.04 31.70 31.04 30.05 28.94 28.69 28.06 26.63 28.05 28.25 29.11 29.24 31.92 32.10 29.77 29.47 28.32 28.38 28.20 29.17 30.63 31.10 31.60 32.20 29.97 29.25 30.23 29.96 29.87 30.31 30.34 31.49 32.60 32.71 33.44 33.19 32.06 31.78
36.35 35.51 34.90 34.05 33.68 33.22 30.53 29.31 28.96 28.20 27.22 24.30 25.68 25.95 27.27 27.54 30.15 30.02 30.31 30.27 30.25 28.39 27.96 29.24 29.65 31.07 31.08 31.48 30.86 30.88 31.21 30.71 31.01 30.57 29.85 29.16 30.61 31.54 32.50 33.64 33.80 33.74 35.55
34.32 33.69 32.76 32.87 32.27 31.16 28.49 27.70 27.55 27.15 26.09 25.34 26.53 24.55 24.73 27.06 27.78 29.14 29.16 29.85 30.35 28.03 28.64 29.37 30.60 30.79 30.79 30.11 30.61 30.28 29.32 28.33 27.62 28.33 28.95 29.68 30.82 31.50 33.36 33.31 33.03 34.98 33.69
32.41 31.67 31.23 30.14 29.62 29.04 28.57 28.21 26.94 25.75 25.10 25.79 24.03 23.85 24.61 25.74 25.80 26.74 27.47 29.02 30.42 29.50 29.37 29.17 28.40 28.38 28.96 29.46 29.86 30.79 30.54 29.79 27.63 27.61 29.52 29.97 32.01 32.52 32.84 33.20 31.34 31.02 28.96
30.54 30.16 30.21 29.64 28.05 27.44 28.05 27.29 26.60 26.59 26.57 24.91 24.92 25.67 24.86 23.34 25.13 28.71 29.97 29.33 29.39 29.52 29.28 28.51 27.76 27.01 26.40 26.70 28.12 30.83 28.38 28.09 28.04 29.97 29.23 29.60 30.75 30.97 32.07 31.58 30.04 28.80 27.18
28.91 29.19 28.60 27.56 27.02 27.57 26.63 26.41 29.51 28.80 28.99 29.49 29.02 27.97 26.80 27.24 28.58 30.08 30.60 31.66 30.79 30.03 27.71 25.78 24.14 24.17 25.01 25.60 26.04 28.95 27.72 26.67 26.95 26.34 26.88 29.94 31.05 31.43 30.54 29.82 30.14 27.92 27.18
26.88 27.73 26.92 26.34 26.87 25.98 25.54 24.35 22.76 26.28 29.16 29.13 28.78 27.97 26.98 27.37 29.35 29.25 29.63 30.44 31.18 29.28 25.26 23.72 23.30 23.88 23.30 24.64 25.42 27.06 27.53 30.86 30.34 28.59 27.47 30.72 28.97 28.39 29.58 28.80 28.88 27.92 26.74
28.99 26.13 26.84 25.69 25.60 25.68 24.54 24.63 24.67 23.03 22.58 23.73 27.44 26.13 25.80 27.32 28.98 27.80 27.92 27.90 25.58 26.57 26.37 24.84 23.92 23.40 24.71 23.33 24.59 25.49 27.24 28.24 28.24 28.85 30.86 31.25 27.86 26.65 27.14 27.85 26.76 25.77 25.05
28.54 27.34 25.45 25.02 24.92 24.47 25.01 24.16 24.78 22.51 23.48 23.71 24.24 23.62 23.72 26.52 27.17 26.14 25.73 23.06 22.67 23.43 24.54 24.39 25.73 25.10 23.68 24.72 24.50 24.50 25.78 25.96 27.47 27.92 28.10 28.50 28.78 28.67 28.00 27.82 24.74 25.42 24.83
29.83 25.41 22.92 24.90 24.94 24.64 24.02 23.04 23.23 22.19 23.51 23.10 22.36 21.20 21.91 23.16 21.32 21.14 21.45 20.97 20.73 21.22 22.56 23.89 24.41 25.36 25.77 24.37 23.54 23.68 23.85 24.64 25.97 25.42 24.90 25.10 26.56 27.34 26.59 25.12 24.79 24.01 24.56
29.06 27.87 23.93 26.89 24.79 23.93 23.28 21.88 22.66 22.27 23.00 22.61 22.25 22.65 22.01 20.96 20.27 20.04 19.99 19.48 19.79 19.90 19.97 21.15 22.75 23.67 24.46 25.12 24.91 23.58 23.08 23.09 23.60 24.64 24.05 24.14 22.50 21.49 23.23 21.67 20.58 20.28 20.21
27.75 27.15 26.63 25.12 25.01 24.70 22.95 23.50 21.91 21.40 21.81 22.00 21.86 21.63 21.63 20.64 19.49 19.29 19.26 19.14 19.03 19.70 20.20 19.05 18.98 19.54 20.99 22.30 24.30 23.73 23.77 23.65 23.58 23.87 23.73 23.55 22.77 21.65 21.26 21.44 21.04 20.58 20.73
28.35 26.94 25.95 24.86 24.70 20.81 23.01 21.93 21.35 22.32 20.85 21.82 21.30 20.08 19.87 19.23 18.67 18.22 17.90 19.05 18.01 17.07 17.61 18.24 16.23 16.02 17.49 18.66 20.09 21.43 23.94 24.10 24.53 25.37 23.83 22.73 22.08 21.70 21.34 20.22 19.82 19.79 19.75
27.69 25.30 24.85 23.74 24.16 23.37 23.56 20.60 20.48 19.84 20.74 20.14 20.26 19.97 18.69 18.51 17.80 17.22 17.79 17.53 17.82 17.08 16.81 15.32 15.32 13.73 13.46 14.25 15.56 17.48 19.79 24.63 25.31 25.43 25.04 23.70 22.55 21.53 21.20 20.47 20.23 20.29 19.67
26.68 25.71 25.11 24.40 23.30 21.95 22.64 20.63 21.66 20.73 20.76 19.76 19.17 19.01 18.69 18.15 16.99 16.83 17.01 17.53 16.83 16.32 15.04 14.84 13.72 12.51 11.27 10.81 11.89 13.04 15.42 17.89 21.63 24.17 23.58 22.71 21.69 21.28 20.57 19.31 18.99 18.78 18.83
27.32 26.35 24.55 24.57 24.05 21.48 20.05 18.89 19.00 19.78 19.70 19.69 18.86 18.41 18.14 17.62 17.26 16.87 16.65 16.38 15.87 15.57 15.07 14.32 12.94 11.46 10.68 10.58 10.74 12.13 12.37 13.95 16.78 18.37 20.61 19.47 16.65 16.71 15.01 13.25 11.69 10.75 12.78

GFSGL_sfc_wetblb_009.txt.gz
Wetbulb
43.46 42.40 41.17 40.39 39.50 39.08 39.80 39.44 39.37 39.75 39.93 40.15 40.10 39.75 39.34 38.32 38.39 37.52 36.44 36.07 35.18 35.00 34.79 34.41 34.52 35.40 35.37 35.94 36.40 36.43 35.89 35.89 32.56 34.98 37.57 38.88 38.50 39.61 40.82 40.25 44.00 45.49 46.07
41.59 40.22 39.66 39.12 38.25 37.60 37.88 38.90 39.36 38.61 39.68 39.11 39.20 38.80 38.35 37.97 37.49 35.86 35.05 34.98 34.13 33.63 33.90 32.63 33.36 35.69 33.53 33.74 34.11 33.73 34.03 34.93 33.67 31.63 34.59 36.10 36.52 38.04 38.13 38.14 39.43 44.02 44.50
39.82 38.48 37.96 37.68 37.23 37.06 37.36 37.73 38.46 38.51 38.53 38.25 38.19 37.51 37.24 36.65 35.73 34.74 34.17 33.75 33.25 33.00 32.85 32.42 32.76 32.60 31.81 32.31 32.25 32.42 33.35 34.93 34.19 32.96 32.61 35.20 35.67 36.10 36.75 36.34 36.59 37.53 43.08
38.98 37.76 36.91 37.00 36.64 36.79 36.92 36.57 37.54 38.12 36.86 36.51 36.49 36.45 36.06 34.74 34.40 33.94 33.75 32.49 31.38 31.28 31.21 30.99 30.82 30.55 29.68 29.66 30.18 30.21 31.42 30.87 31.60 31.17 31.06 31.96 33.57 35.42 34.76 34.79 33.59 33.57 34.83
39.27 37.64 38.31 38.40 38.47 39.47 38.62 37.46 36.87 36.56 36.34 35.85 34.97 33.61 32.93 33.02 33.79 31.90 30.79 29.74 28.46 28.41 29.28 29.98 30.36 31.52 33.76 33.02 31.06 29.74 29.39 28.87 29.49 29.59 28.92 29.78 31.12 31.34 32.98 32.45 32.16 31.42 32.46
41.01 39.39 40.10 39.99 39.22 38.77 37.75 37.38 36.25 34.87 34.09 32.73 31.43 31.07 30.40 32.65 33.98 34.35 32.05 28.35 28.20 27.84 27.01 28.20 28.99 30.89 30.82 32.10 32.11 32.14 30.96 27.88 27.17 27.16 27.38 27.28 28.84 30.77 34.22 33.36 32.27 30.27 27.11
40.80 40.30 40.10 39.98 39.39 38.76 37.33 35.66 33.94 32.05 30.78 29.40 29.08 29.08 28.52 28.37 33.15 32.94 32.40 29.07 27.65 26.96 26.54 26.80 27.57 29.14 30.10 29.00 30.12 30.93 30.74 31.59 30.46 29.41 27.40 27.21 27.65 29.81 31.26 29.46 31.55 31.93 30.25
39.87 39.85 39.91 39.99 38.00 35.02 34.18 33.03 30.65 29.10 28.28 27.76 27.59 27.45 27.10 28.75 31.91 32.27 31.65 29.04 27.66 27.54 27.67 27.85 27.63 27.63 28.43 28.58 28.15 27.31 28.18 29.14 30.54 30.86 30.36 30.06 30.33 30.43 29.94 30.53 30.22 32.63 32.88
39.30 39.00 37.26 34.72 33.86 33.37 31.20 28.82 28.33 27.42 26.88 26.19 27.06 26.80 26.30 26.95 31.01 31.33 30.62 28.58 27.94 27.85 29.26 29.52 30.21 29.58 30.84 31.99 29.90 28.80 28.02 28.43 31.69 33.18 33.67 33.95 34.00 33.66 32.76 29.92 28.09 27.74 27.63
34.79 33.80 34.52 34.29 33.10 31.07 29.07 27.71 27.36 26.41 26.05 26.62 26.98 27.24 28.80 26.55 29.25 30.63 30.36 29.03 27.02 27.24 27.84 28.45 30.00 29.30 30.86 31.71 30.41 29.37 27.67 28.16 28.91 29.37 29.76 31.48 33.32 33.51 33.82 32.44 31.07 27.63 27.18
34.56 34.81 34.24 33.28 31.24 29.91 27.88 26.99 25.70 24.99 25.60 21.41 20.64 24.36 25.47 26.67 25.58 29.54 29.83 27.94 27.71 27.22 26.90 27.43 28.32 30.10 30.73 31.18 31.54 30.16 28.90 30.16 29.62 29.06 28.71 29.11 29.63 30.45 31.35 32.90 33.40 32.08 29.38
34.23 33.22 31.75 31.12 30.86 30.16 25.76 24.99 25.24 24.26 21.43 15.18 17.09 20.40 23.14 22.99 27.79 28.77 29.24 28.94 28.82 27.00 27.13 28.32 28.46 29.66 30.31 30.56 30.89 31.16 31.05 30.03 30.32 29.27 28.68 28.37 28.68 29.51 30.44 32.38 32.82 32.95 32.81
31.37 30.61 29.72 29.97 29.14 26.99 24.90 24.06 23.43 22.82 19.18 17.23 20.00 21.21 22.06 25.55 26.69 28.13 28.01 28.69 29.54 28.80 29.65 30.06 30.75 30.97 30.72 29.57 30.11 30.47 29.85 29.41 27.58 26.76 26.95 28.76 29.36 30.53 31.43 31.99 32.60 33.31 32.98
29.49 28.73 28.83 26.99 26.37 25.00 24.92 24.95 21.27 19.51 18.62 22.67 21.24 21.75 23.51 25.36 24.61 25.62 27.27 28.84 30.42 29.46 28.77 28.74 27.10 27.51 27.27 26.65 26.92 28.96 29.94 30.26 28.84 27.08 26.62 28.24 30.77 30.62 29.95 31.44 31.07 31.91 31.11
28.28 27.96 27.25 26.24 24.67 24.59 25.38 23.38 23.19 22.61 20.33 23.90 24.46 25.13 24.16 22.29 24.39 28.30 28.70 29.20 29.42 28.77 27.23 25.21 23.78 22.77 23.43 25.22 25.75 27.30 26.04 24.46 28.75 27.05 26.67 27.62 28.67 29.37 30.23 31.69 31.66 30.09 27.61
27.17 26.45 24.10 22.70 22.27 22.52 21.60 22.20 26.59 27.67 28.48 28.71 28.84 27.50 25.51 26.50 28.73 28.82 29.20 29.99 29.96 29.90 25.99 20.37 20.64 21.80 21.49 23.12 23.71 25.67 27.42 24.30 24.87 25.88 25.33 26.96 28.58 29.39 29.41 30.22 30.30 29.07 27.90
23.04 25.42 23.49 23.42 21.76 20.73 21.24 20.92 18.59 21.02 26.82 27.21 28.11 26.57 26.46 27.32 28.13 27.36 27.80 27.87 27.60 27.37 23.73 23.19 19.72 20.55 22.17 22.84 23.43 24.52 25.42 27.60 29.18 24.85 26.91 29.25 29.34 27.18 28.92 28.68 28.53 27.01 24.18
19.91 22.49 18.40 18.19 17.08 18.62 17.75 20.82 15.69 17.48 14.27 16.70 25.51 24.78 25.17 26.73 26.25 25.80 25.50 24.51 21.96 22.49 23.45 22.23 22.93 21.15 22.00 22.36 22.90 23.03 24.49 25.47 27.32 27.56 30.00 26.93 26.89 25.26 25.32 26.68 26.14 21.18 23.43
25.96 22.53 17.68 16.15 13.57 15.71 18.01 14.34 14.34 13.69 14.41 17.68 22.19 21.96 22.64 24.76 24.45 23.96 22.99 20.05 19.20 18.97 19.97 21.59 21.96 22.40 23.10 22.60 21.83 21.97 22.71 23.85 23.13 24.32 24.87 26.76 23.48 19.11 23.74 23.12 19.23 17.28 18.63
24.84 22.40 19.93 19.16 16.67 18.51 15.16 14.33 14.19 13.73 13.28 19.46 20.17 19.65 20.75 20.52 18.68 18.74 18.71 18.20 18.37 17.69 17.62 18.56 18.96 19.57 20.06 22.35 22.55 22.17 21.63 22.70 22.63 22.69 22.79 22.31 23.43 24.68 23.70 23.20 20.53 21.42 21.87
21.36 24.35 24.47 24.96 22.88 19.06 13.76 12.06 16.01 11.27 10.45 17.89 19.73 20.72 20.78 18.75 17.53 17.54 17.46 16.20 15.84 16.50 15.97 16.11 16.33 16.29 17.26 17.96 18.87 21.98 21.78 20.57 21.29 21.34 21.71 21.66 22.12 21.56 21.88 20.36 18.90 19.42 20.37
21.75 24.51 23.74 17.36 19.27 13.14 12.42 15.53 12.12 12.56 9.35 16.65 19.04 19.61 19.90 18.31 17.34 16.78 17.17 16.08 15.78 15.49 16.38 14.58 13.79 14.35 14.76 15.26 16.35 16.75 21.29 21.31 22.02 22.02 21.51 21.10 20.34 20.38 20.61 20.37 20.00 20.24 20.62
15.52 19.40 18.68 17.40 16.21 14.55 13.14 12.29 11.79 9.37 8.33 13.74 17.98 17.37 17.42 16.92 15.98 16.30 15.76 16.17 15.71 15.34 14.36 13.68 12.06 11.88 12.77 13.59 14.52 16.03 16.96 20.99 22.71 22.45 21.00 20.46 20.62 20.21 19.46 19.67 19.87 18.52 17.94
16.52 16.32 16.79 17.10 15.04 13.23 11.05 11.60 11.62 9.60 13.90 11.90 14.45 16.52 15.58 15.70 15.50 15.29 16.04 15.99 15.61 13.78 13.27 11.98 11.06 9.59 9.84 11.13 12.74 14.58 16.56 19.19 22.73 22.76 21.54 20.50 19.75 18.90 19.07 19.46 19.66 19.37 19.12
18.56 14.31 15.50 15.49 12.74 13.88 8.20 9.09 9.69 6.12 12.08 11.24 11.74 14.27 14.56 14.37 14.99 15.32 15.80 16.20 14.98 13.78 11.86 11.21 10.57 9.25 8.45 8.51 9.99 10.30 12.36 14.44 15.72 17.61 18.81 18.62 17.89 18.35 18.56 18.16 18.39 18.57 18.98
24.75 21.00 16.23 15.67 16.90 10.35 7.29 7.33 5.60 9.07 12.65 10.44 10.14 10.70 13.17 14.19 15.35 14.74 14.76 14.32 13.84 12.97 11.31 10.73 9.49 7.82 7.71 8.59 9.69 10.52 10.12 11.31 12.56 11.74 14.19 14.03 11.63 9.76 8.31 8.97 9.33 12.00 11.62

GFSGL_sfc_wetblb_012.txt.gz
Wetbulb
43.00 41.53 40.16 38.11 38.16 37.59 37.45 37.54 37.90 39.81 41.08 41.20 40.97 40.45 39.91 39.26 39.24 37.79 36.36 36.05 35.00 34.44 34.31 34.10 33.91 34.36 34.00 34.32 34.67 34.84 33.98 33.58 30.68 32.90 35.77 37.34 37.20 37.66 39.37 40.88 42.03 40.90 41.71
40.46 39.78 38.76 37.36 37.05 36.15 36.42 37.00 38.18 38.75 39.01 39.82 39.35 38.79 38.67 38.20 36.96 35.74 34.37 34.54 32.79 31.97 32.24 32.44 32.57 34.29 32.20 32.16 31.98 32.00 32.43 32.73 31.29 29.18 32.18 33.86 34.69 36.61 37.61 38.26 39.86 41.32 40.87
39.31 38.01 36.74 36.00 35.41 34.99 36.13 37.02 37.73 37.77 38.35 37.60 37.73 36.54 36.55 36.23 35.22 34.33 33.50 32.66 32.05 32.18 31.89 31.30 31.46 31.37 30.04 29.87 29.82 29.93 30.67 32.69 31.86 30.54 30.06 32.44 33.79 34.78 35.29 36.26 37.23 38.04 39.18
37.69 36.05 35.27 35.06 34.69 35.79 36.25 36.26 36.44 36.52 35.93 35.32 35.61 35.44 35.49 34.58 33.39 32.89 32.49 30.74 29.56 29.63 29.44 29.24 29.61 29.42 29.08 28.85 29.03 28.87 29.46 28.76 29.12 28.62 28.68 29.63 31.59 33.11 33.41 32.40 32.63 34.76 34.58
40.33 39.84 37.84 37.98 36.98 36.96 35.89 35.66 36.45 37.27 36.33 34.94 33.87 32.19 31.47 31.48 32.14 30.60 30.06 28.66 27.74 27.60 28.35 28.52 28.79 30.14 32.38 32.22 30.53 29.28 28.90 27.83 27.21 26.59 26.03 27.13 28.18 28.90 29.21 30.83 31.05 30.99 32.55
39.25 40.00 40.33 40.18 39.82 39.12 38.97 38.06 36.89 36.06 34.36 32.42 30.71 29.96 29.25 31.05 32.69 33.37 31.75 27.92 27.96 27.36 26.55 27.25 27.61 29.50 29.16 30.85 31.84 31.96 30.85 27.82 26.64 26.43 26.19 25.54 26.22 28.04 29.74 29.59 31.22 30.60 28.99
40.77 40.51 40.44 40.39 39.28 38.22 38.52 37.09 34.69 31.61 29.88 28.64 28.06 27.80 27.31 27.74 31.75 32.56 32.46 28.67 27.60 27.24 27.04 26.97 27.06 28.29 29.48 28.52 29.69 30.87 30.49 31.21 29.91 28.11 26.63 26.90 27.05 28.43 28.55 27.66 28.29 28.32 28.41
38.86 39.28 39.05 38.31 37.99 36.44 33.77 31.28 29.09 28.34 27.51 26.80 26.76 27.22 26.42 27.48 31.09 31.68 31.63 28.32 27.31 27.35 27.66 27.63 27.81 27.99 28.94 28.73 28.51 28.16 28.30 28.27 28.58 28.93 28.98 29.52 30.09 30.56 30.01 29.42 28.82 28.58 28.73
39.73 36.86 34.30 33.19 32.40 30.82 28.93 27.85 27.52 26.64 25.89 25.30 26.36 25.71 25.95 26.14 29.92 30.49 29.73 26.17 26.47 27.40 28.26 28.15 28.20 28.41 29.93 31.43 29.09 28.66 28.65 28.39 30.87 32.26 32.35 32.20 32.53 32.99 32.35 30.16 28.08 26.99 25.25
32.41 33.35 34.33 33.13 31.01 28.51 27.47 26.84 26.40 24.81 24.97 25.91 26.21 25.83 26.67 24.90 28.39 29.17 28.32 27.03 25.40 25.43 26.33 27.28 28.95 28.63 29.72 30.31 28.84 27.96 27.03 27.96 28.54 28.41 29.19 31.06 32.22 31.80 32.78 32.60 30.25 26.85 26.38
34.16 33.40 32.03 31.27 30.05 28.48 26.53 25.47 24.26 24.06 24.41 19.43 18.78 22.10 24.06 25.23 24.04 28.40 29.13 27.47 26.44 26.01 26.15 26.83 27.41 29.71 30.58 30.70 30.96 28.79 28.29 29.32 28.84 28.61 28.70 28.52 28.97 28.54 29.40 31.07 32.68 31.31 28.40
32.48 31.37 30.56 29.93 29.36 28.04 25.20 24.36 24.59 23.08 20.14 13.79 14.36 17.99 21.34 21.84 25.96 27.80 28.85 28.44 28.27 27.15 26.94 27.85 28.96 30.45 29.99 30.31 30.07 30.86 30.87 29.87 29.53 28.41 27.60 27.56 27.73 27.81 28.73 29.92 30.68 32.07 32.97
30.32 29.22 28.39 28.36 27.56 26.28 24.17 23.75 22.53 21.50 18.84 16.73 18.41 19.52 20.75 23.65 25.17 27.83 27.42 27.97 29.28 28.52 29.14 29.09 29.08 28.83 27.81 26.83 28.62 29.13 28.51 28.47 28.10 27.14 25.94 26.43 28.22 29.23 30.13 29.55 28.58 29.84 30.87
28.07 28.14 28.14 26.35 26.20 24.93 24.55 24.45 20.75 18.69 18.09 22.43 20.63 20.94 22.13 22.79 23.21 24.47 26.75 27.75 29.20 29.35 26.65 26.35 23.82 24.61 22.66 25.12 26.63 27.30 28.10 28.69 28.90 27.85 26.98 27.40 28.88 29.67 29.01 28.74 29.06 30.16 30.09
27.72 27.46 26.69 25.53 23.82 23.92 24.57 22.85 23.04 22.61 19.61 19.41 19.28 24.86 21.36 20.02 23.29 28.12 27.27 27.75 28.23 27.53 26.85 22.51 21.65 21.34 22.14 23.35 24.33 25.59 27.44 27.65 24.48 27.19 26.80 25.55 26.68 27.46 28.66 27.72 29.39 29.21 28.44
26.93 25.85 23.33 22.15 21.07 21.53 20.37 22.11 26.40 26.25 26.86 27.26 27.94 25.41 23.43 25.95 27.80 27.16 27.53 28.18 27.51 27.79 24.35 21.27 17.20 20.25 20.48 21.83 22.08 22.64 23.96 26.00 25.87 20.79 17.55 20.05 21.32 24.87 23.93 25.23 28.37 29.34 28.33
22.81 24.78 22.59 22.62 21.31 20.45 19.28 20.03 15.31 19.03 25.08 25.86 26.67 25.38 25.51 26.40 26.06 26.11 26.08 25.69 25.49 24.30 22.03 20.64 18.81 20.46 20.65 21.14 21.20 21.77 22.06 24.61 27.76 28.08 26.26 27.36 27.98 26.30 29.18 28.92 27.21 26.29 25.67
16.31 19.55 21.36 20.13 18.67 18.61 12.48 14.10 13.02 11.44 9.52 13.68 21.66 23.41 24.02 25.17 24.69 24.44 23.60 22.26 19.73 20.23 19.58 18.90 18.10 18.61 20.14 21.22 20.69 20.41 21.18 22.70 22.43 24.49 26.81 24.33 25.51 22.66 20.59 23.49 25.54 22.38 23.25
24.36 20.08 15.13 16.81 17.42 16.12 13.01 13.60 10.96 9.79 10.84 11.90 13.42 19.81 20.72 23.01 23.02 22.27 21.10 17.04 16.95 16.56 17.05 17.48 17.27 16.73 17.12 17.71 19.58 20.23 21.09 20.60 21.18 21.74 21.95 22.54 21.01 15.20 20.06 19.74 20.56 21.97 20.78
23.49 22.99 20.74 19.82 17.29 18.60 16.89 12.04 12.89 9.81 9.81 11.92 11.95 17.88 18.91 18.82 16.77 16.65 16.22 15.25 14.50 15.03 15.09 15.31 15.61 15.38 14.75 15.46 16.04 18.14 20.04 20.94 19.65 19.58 19.96 20.16 21.30 22.24 22.34 23.06 20.93 20.57 20.94
19.11 25.13 24.12 18.36 15.43 17.59 12.29 10.17 10.39 7.35 6.89 7.99 14.00 16.27 18.48 17.11 16.04 15.67 15.62 14.71 13.78 13.17 13.21 12.93 13.01 13.35 13.21 13.07 14.16 14.25 18.81 19.23 19.46 18.45 18.10 18.89 18.71 18.74 19.20 18.11 16.90 19.50 20.68
17.48 20.26 21.91 17.25 16.74 12.50 11.03 13.17 6.97 7.02 6.70 6.54 14.54 15.89 17.39 15.80 15.71 15.29 14.92 14.21 14.45 14.03 13.42 11.97 11.03 11.92 12.32 12.67 12.44 12.32 14.10 17.77 18.88 17.33 14.86 15.34 16.01 16.51 17.57 17.70 16.47 14.10 16.82
15.09 16.37 17.78 17.95 13.61 10.79 7.16 7.48 6.47 4.00 4.55 6.86 11.17 13.63 14.09 13.02 14.19 14.82 14.65 14.33 13.40 12.66 12.18 10.85 9.12 9.19 10.59 11.59 12.53 13.85 14.23 15.85 19.37 17.37 13.51 12.70 14.78 14.29 13.06 14.10 13.76 15.34 15.38
15.16 15.69 16.85 15.87 10.44 9.17 6.80 6.36 5.54 6.72 11.48 8.43 7.77 10.78 11.06 11.22 12.60 13.79 14.72 14.28 13.73 11.85 10.51 9.55 8.64 7.30 8.04 8.81 10.74 12.35 13.68 14.11 14.58 16.43 14.70 14.41 14.78 13.71 12.91 14.18 15.15 15.57 16.05
15.93 20.26 13.78 13.83 9.19 8.26 5.11 3.22 0.38 4.00 11.28 8.44 7.33 8.64 12.47 10.84 12.60 13.11 13.96 13.79 12.38 10.25 9.08 8.78 8.01 7.17 6.75 7.13 8.59 8.69 9.72 10.71 10.35 11.40 13.69 10.82 8.83 9.81 11.10 13.46 14.41 16.19 16.36
25.14 24.01 17.15 9.91 12.04 7.14 6.18 4.32 0.35 4.25 8.61 7.38 6.46 7.00 8.80 11.37 11.91 11.57 12.39 12.29 11.60 10.21 8.54 7.30 7.81 6.27 6.56 8.32 8.47 9.08 7.93 7.50 8.72 8.44 9.08 9.76 7.51 6.40 6.05 6.31 4.79 5.27 4.11

GFSGL_sfc_wetblb_015.txt.gz
Wetbulb
41.88 39.62 39.57 39.38 37.63 36.47 35.89 36.32 37.19 38.82 39.69 40.52 40.04 40.62 40.60 39.58 38.96 37.85 37.20 36.36 35.18 34.52 34.18 33.82 33.28 33.86 33.33 33.11 33.52 33.60 32.67 32.17 29.05 31.10 32.99 34.31 33.19 33.67 35.97 37.46 38.79 39.47 40.70
38.79 38.69 38.08 37.23 35.95 35.14 35.48 36.35 37.56 39.00 40.01 39.44 38.62 38.55 38.72 38.35 37.53 35.54 34.10 33.91 32.60 31.91 31.74 31.42 31.50 33.41 31.79 31.77 31.42 30.97 31.00 31.61 29.99 27.91 30.67 31.24 31.80 33.18 34.97 35.40 37.07 39.03 38.73
38.34 37.19 36.04 35.21 34.31 33.74 34.69 36.74 37.77 37.95 37.83 37.45 36.57 36.04 35.86 35.49 34.55 33.55 32.69 32.14 31.53 31.13 30.66 30.36 30.44 30.39 29.10 29.33 29.65 28.82 29.30 31.01 30.53 29.12 28.55 30.63 31.25 32.14 32.26 33.83 34.37 35.32 36.91
37.34 35.83 34.83 34.19 34.97 34.42 36.14 35.80 36.07 36.97 36.25 35.38 35.81 35.46 34.65 32.46 31.91 31.58 30.89 29.65 28.65 29.03 29.05 28.73 28.21 27.85 27.36 27.53 27.91 27.85 28.61 27.80 28.02 27.32 27.00 27.37 29.08 31.31 30.92 29.57 29.80 32.55 33.35
39.16 37.85 37.67 38.14 37.74 38.07 38.63 38.41 38.20 38.56 38.14 34.93 32.92 30.96 30.43 30.29 30.75 29.67 29.53 28.68 28.10 27.54 27.90 27.92 27.98 28.93 31.24 30.39 28.84 27.88 27.99 27.32 27.05 26.75 26.33 26.76 26.57 26.47 26.22 27.92 28.21 29.89 31.44
39.30 39.17 40.39 40.67 40.58 39.54 39.18 36.99 37.49 36.97 34.49 31.91 30.41 29.84 28.60 30.06 32.07 32.74 31.52 27.95 27.96 27.37 26.17 27.09 27.51 29.45 29.02 30.47 30.62 31.16 30.43 27.53 27.08 26.77 26.60 25.44 26.21 27.17 27.63 27.16 26.58 26.12 25.35
38.80 38.88 40.67 40.54 38.99 37.77 37.59 37.53 34.90 30.91 29.36 28.53 27.99 27.67 27.25 27.39 30.74 31.70 32.03 28.51 27.12 26.78 26.44 26.59 27.08 28.29 29.22 28.22 29.08 29.78 29.95 30.52 29.69 28.91 26.93 26.35 25.73 26.70 27.30 26.43 27.19 26.54 26.40
38.52 38.13 37.51 37.28 37.38 34.90 31.57 29.79 28.49 28.08 27.15 26.45 26.56 26.74 26.35 27.21 30.06 30.32 30.23 27.81 26.07 26.47 26.86 27.11 27.25 27.11 28.21 28.61 28.13 27.81 27.84 28.16 28.83 28.36 28.16 28.26 28.53 28.80 29.17 29.08 27.65 27.46 28.05
36.28 33.20 32.71 33.05 32.02 29.88 27.35 26.30 25.77 25.16 25.66 25.30 26.35 26.24 25.43 25.08 28.48 28.76 28.18 23.92 24.28 24.82 26.93 27.13 26.91 26.94 28.91 30.45 27.98 26.81 26.86 27.29 30.65 32.02 32.20 31.17 31.50 32.09 31.47 29.64 27.73 26.56 24.37
32.91 32.89 32.25 30.88 29.57 27.70 26.54 25.56 25.92 24.91 25.38 26.20 25.81 25.08 25.49 23.38 26.56 28.48 28.01 24.79 24.39 25.19 25.74 27.32 28.56 27.92 29.36 29.97 28.23 27.55 26.39 26.94 27.68 28.19 28.89 30.67 32.02 31.21 31.97 31.11 29.72 26.40 25.60
32.08 31.37 31.48 30.66 28.97 26.84 26.06 25.65 24.81 24.20 24.00 19.60 18.42 20.78 22.59 24.00 22.53 27.79 28.61 27.02 25.43 25.47 25.36 26.21 27.94 29.55 29.67 30.21 30.69 28.18 27.84 29.54 28.15 27.98 28.37 28.91 29.07 29.18 28.98 30.43 31.44 30.59 27.46
30.39 30.02 29.26 28.57 27.57 26.90 25.13 24.57 24.26 22.50 20.45 14.94 13.01 17.00 20.66 20.49 25.24 26.79 28.02 28.06 28.06 26.09 26.18 28.25 27.72 28.68 28.40 28.06 27.15 27.91 29.35 29.00 29.07 27.94 27.65 27.83 28.11 28.26 28.72 29.75 30.46 31.33 31.49
29.16 27.69 27.96 27.82 27.11 26.08 24.20 23.13 22.22 21.53 18.78 16.30 17.95 19.06 20.20 22.69 22.76 25.83 26.63 27.87 28.42 27.44 29.12 28.38 29.21 26.92 26.26 25.14 26.34 27.63 27.65 27.00 26.77 26.31 26.11 27.05 28.21 29.17 29.52 29.10 29.86 30.47 31.69
28.14 28.01 28.08 25.73 25.36 24.29 24.30 24.03 21.01 19.54 18.07 21.57 20.14 19.32 20.05 20.30 21.31 23.08 26.73 25.95 28.22 28.77 26.73 26.73 24.90 24.30 23.33 24.57 25.43 26.12 26.71 27.76 27.03 27.14 27.00 27.74 28.73 28.91 28.59 29.31 28.37 28.38 28.26
27.58 26.82 25.94 25.14 23.73 23.25 23.86 22.55 23.20 22.58 19.01 16.78 17.34 21.41 20.38 19.57 22.16 26.70 26.33 26.12 26.93 26.65 24.52 23.17 21.06 19.96 20.33 21.28 21.89 22.92 23.31 23.69 25.73 22.75 23.34 24.79 25.69 26.58 27.11 27.68 28.44 28.72 27.21
26.70 25.61 22.71 21.78 21.18 20.56 19.44 21.35 25.47 25.53 26.20 26.43 26.76 24.96 23.11 24.92 26.44 26.46 26.34 26.90 26.59 25.41 23.04 20.32 17.00 16.29 18.05 20.00 19.63 19.41 20.44 21.52 23.24 26.59 24.64 21.02 21.20 23.96 24.11 24.65 28.37 28.00 27.13
20.46 23.24 22.15 22.20 21.74 19.71 18.36 18.58 13.76 17.93 23.94 24.72 25.28 25.01 24.52 24.81 25.50 25.31 24.84 24.74 24.33 22.13 18.96 18.06 15.61 14.53 15.43 17.78 19.34 19.49 19.29 21.21 23.17 24.30 25.70 27.22 27.18 27.59 27.27 26.50 27.08 27.90 27.00
15.23 17.11 15.26 15.98 15.49 17.95 15.51 15.83 9.97 10.21 8.10 12.01 19.53 22.28 22.74 23.97 24.05 23.52 22.36 20.65 17.91 18.38 17.49 16.65 15.16 14.98 15.24 16.18 16.83 19.08 20.03 20.06 18.84 20.14 21.46 21.97 23.08 24.20 24.01 25.10 25.40 22.54 22.05
23.54 17.49 13.24 13.25 13.44 14.46 16.09 12.45 10.29 10.18 8.33 10.74 12.05 15.53 19.02 21.74 21.84 21.13 19.99 15.47 14.19 14.75 15.12 14.92 15.04 14.62 13.60 13.94 13.60 14.34 19.61 20.06 17.26 16.72 17.58 18.18 19.34 21.96 23.98 23.11 21.15 23.49 23.30
23.07 21.10 21.08 18.45 13.72 14.53 14.52 9.98 12.26 8.40 10.12 9.18 10.23 11.49 17.83 17.80 15.46 15.18 15.76 14.38 13.23 13.08 13.10 13.33 13.47 13.50 12.63 12.30 11.99 12.21 15.72 19.00 17.79 16.78 16.36 15.72 16.11 19.11 19.84 21.08 20.18 20.05 18.24
21.84 20.43 23.67 20.24 17.22 14.42 9.92 10.15 8.58 7.86 5.05 6.86 7.57 10.24 17.76 15.66 14.93 14.36 14.29 13.44 13.04 12.26 11.43 11.29 11.02 11.37 12.06 12.39 12.65 11.77 12.37 14.91 18.40 15.86 14.52 15.21 13.42 11.63 15.31 13.22 12.54 15.89 14.81
18.76 16.58 19.23 16.39 13.83 10.10 9.43 9.14 6.42 7.65 5.73 6.13 4.50 11.89 15.70 14.15 14.25 14.40 14.19 12.39 12.43 12.34 11.92 10.67 9.37 10.09 10.64 10.44 10.84 10.89 12.33 13.45 16.09 15.48 11.40 10.85 12.25 12.41 11.73 11.86 11.19 12.09 14.88
17.69 15.85 16.98 15.45 14.94 11.01 6.46 7.70 4.85 2.33 4.84 4.66 4.68 9.07 11.22 11.51 12.04 13.56 13.32 13.56 12.49 11.18 10.74 9.65 8.05 7.71 8.85 9.18 10.68 11.25 10.97 11.33 12.23 13.61 9.72 9.26 11.22 11.19 8.42 10.18 10.92 12.75 12.93
15.31 14.37 15.51 15.80 10.34 7.74 1.96 1.42 0.15 2.87 8.15 6.61 2.87 5.55 9.08 10.09 10.79 12.35 13.09 12.32 11.00 10.26 9.41 8.51 7.78 7.06 7.29 7.46 8.37 9.09 9.53 10.70 10.40 11.33 8.31 7.28 8.72 9.25 9.47 10.45 11.39 11.20 10.73
20.26 21.25 21.64 11.88 11.79 8.06 1.60 1.78 0.51 -2.39 1.06 2.87 2.97 5.01 8.38 9.57 10.27 10.79 11.01 10.77 10.56 9.05 8.67 7.82 7.12 6.74 6.46 6.02 6.54 6.30 6.13 6.82 7.11 7.09 9.18 6.87 4.98 4.91 3.22 5.13 2.90 8.80 11.77
24.40 24.17 21.84 12.15 10.51 9.21 2.66 0.15 -1.49 -3.11 -0.21 2.69 2.64 4.44 5.64 6.71 8.49 7.75 9.89 10.01 8.96 8.72 8.41 7.58 6.89 5.41 5.88 7.94 7.20 7.41 4.60 4.43 6.06 5.18 5.37 7.37 5.14 3.34 2.30 1.78 0.41 1.46 0.17

GFSGL_sfc_wetblb_018.txt.gz
Wetbulb
40.40 38.51 37.92 38.99 38.69 36.41 35.62 36.02 36.21 38.16 38.68 39.00 39.57 39.15 39.13 38.90 38.82 38.19 37.85 37.37 36.10 35.22 34.79 33.70 33.06 33.59 32.61 32.93 33.76 33.64 32.53 31.83 28.78 30.90 32.29 33.79 33.44 33.87 35.26 36.52 37.22 37.23 39.03
38.55 38.15 37.32 37.10 35.89 34.30 34.52 35.61 37.27 38.03 38.92 37.76 39.04 38.32 37.69 36.84 36.25 34.85 33.72 33.56 32.55 31.64 31.49 30.87 30.90 32.71 31.11 31.70 31.49 30.52 30.55 31.39 29.85 27.57 30.41 30.64 31.00 33.26 33.76 34.12 36.24 37.82 37.01
39.09 37.65 37.08 36.24 34.13 32.73 34.25 36.04 36.92 36.74 37.39 38.06 37.30 36.41 36.06 35.78 34.16 32.87 32.27 31.31 30.77 30.42 29.93 29.41 29.68 29.63 28.28 28.63 28.96 28.62 29.09 30.17 29.75 28.32 27.69 30.28 31.02 31.97 32.35 33.18 33.74 34.57 35.95
39.30 38.57 36.38 34.81 35.08 36.21 36.60 37.81 38.05 38.59 38.10 38.08 37.34 35.23 33.35 31.50 31.23 30.94 30.34 29.41 28.77 28.78 29.16 28.62 27.95 27.58 26.86 26.86 26.94 26.72 27.29 26.87 27.33 26.99 26.83 27.11 28.29 30.03 30.29 29.19 29.29 31.86 32.20
39.18 38.20 36.57 36.74 39.60 39.60 39.23 38.31 38.32 38.15 37.02 34.42 32.23 31.02 30.17 30.05 30.35 29.42 29.19 28.39 27.39 27.19 28.28 28.19 27.81 28.62 30.84 30.13 28.57 27.67 27.20 26.73 26.93 26.92 26.89 27.31 27.34 27.77 26.93 28.27 27.79 29.24 30.62
39.30 38.01 38.39 40.72 39.91 37.36 37.35 37.46 36.53 36.78 36.76 31.55 29.48 28.48 27.65 29.50 31.62 32.04 31.64 28.45 28.54 28.43 27.05 26.98 27.13 28.99 28.59 29.77 30.27 30.41 30.11 27.72 26.88 26.72 26.13 25.40 25.88 27.04 28.46 27.62 26.86 25.83 24.29
37.70 39.22 39.16 39.42 38.21 38.45 38.47 36.96 34.87 29.71 28.34 27.37 27.27 27.58 27.34 27.50 30.23 30.76 30.67 28.05 27.75 27.37 26.34 26.24 26.79 27.69 28.83 28.04 28.80 29.41 29.41 29.87 28.89 28.26 26.57 26.83 26.88 28.08 27.81 26.83 26.64 26.24 25.88
37.51 37.12 36.75 36.01 35.91 33.44 30.19 28.53 27.44 26.84 26.03 25.75 26.26 26.50 26.48 26.60 29.18 29.23 29.26 26.80 25.75 25.88 26.18 26.28 26.00 26.64 27.44 27.34 27.31 27.70 28.08 28.35 28.62 28.41 28.02 28.06 28.44 29.60 29.44 28.83 28.26 27.75 28.52
33.21 32.99 32.00 30.78 29.74 28.88 27.55 26.82 26.28 25.58 25.40 25.31 26.57 26.14 25.25 24.73 27.75 28.48 28.22 24.36 23.92 24.24 26.18 26.78 27.11 27.46 28.43 29.61 27.68 26.38 26.87 27.51 30.20 31.44 32.19 31.99 31.62 31.63 31.30 29.38 27.44 26.68 24.89
30.55 30.47 29.94 29.38 28.67 26.59 25.30 25.00 25.40 24.68 25.47 26.49 25.64 24.86 24.87 23.12 25.95 28.04 27.68 24.30 22.51 25.35 26.23 27.01 28.01 27.81 29.25 29.85 28.64 27.71 26.54 27.66 28.65 29.01 29.49 30.18 31.62 31.85 31.97 30.89 29.70 26.17 26.11
31.33 31.55 29.63 28.91 26.89 25.53 24.67 24.63 23.91 23.64 24.13 19.79 17.58 20.21 22.28 23.57 21.93 27.37 27.79 26.14 25.67 25.42 25.91 25.84 27.13 29.31 28.90 28.42 28.42 25.95 25.30 27.10 27.36 28.76 29.02 28.73 29.28 29.15 30.25 31.30 31.47 29.79 27.82
30.68 29.20 28.41 27.77 27.16 25.83 24.07 23.71 23.83 22.17 20.25 14.38 12.56 16.25 19.63 19.37 25.13 25.78 26.96 27.57 27.83 26.17 25.26 27.10 28.25 29.23 27.45 27.00 26.28 27.08 28.36 27.93 27.46 27.27 27.66 27.39 27.95 28.19 29.12 30.00 30.70 31.39 31.81
28.69 27.95 28.19 27.57 26.49 25.55 23.53 22.57 22.19 21.18 18.43 16.29 17.03 19.19 19.82 21.98 21.37 24.81 25.72 27.19 27.28 26.41 28.20 27.80 27.43 26.77 25.83 23.91 25.35 26.64 26.20 26.28 26.26 25.58 25.60 26.60 28.23 29.46 30.71 30.58 30.53 31.02 31.17
27.07 26.58 26.32 25.04 24.88 23.91 23.78 23.53 20.95 19.39 17.83 21.01 19.71 18.67 19.73 19.87 20.73 21.97 25.16 25.54 26.82 27.47 26.80 25.76 23.82 23.14 21.08 22.33 23.76 24.15 24.31 24.56 24.45 25.57 25.69 26.83 28.50 28.86 28.97 29.63 28.61 28.60 27.95
26.56 26.17 25.24 25.06 24.05 23.91 23.63 21.91 22.64 22.23 18.84 18.79 17.00 18.15 19.34 19.07 21.26 25.95 25.42 24.63 25.73 25.10 24.87 22.94 20.23 17.97 17.45 18.84 20.99 21.33 21.82 22.17 22.11 24.36 25.82 24.41 24.71 26.59 26.97 28.68 29.01 28.50 26.94
26.35 25.65 22.55 21.55 20.52 19.98 18.72 20.61 24.61 24.55 25.44 25.62 25.77 23.79 22.85 23.90 25.57 25.65 25.40 25.67 25.25 24.17 21.67 18.61 16.56 15.13 14.66 16.37 16.54 19.09 20.17 20.47 20.81 22.84 24.50 27.05 24.19 23.33 25.63 25.53 26.97 27.17 26.37
19.29 22.09 19.76 20.51 19.36 18.54 18.56 18.90 16.24 17.75 23.35 23.69 24.30 23.94 23.70 23.66 24.73 24.16 23.51 23.16 22.79 20.73 17.47 16.81 15.39 14.64 14.55 15.69 15.90 16.94 18.36 20.49 21.17 20.32 21.33 22.43 24.70 26.17 26.12 25.27 25.72 27.74 27.48
14.41 16.02 14.44 15.02 13.63 15.25 10.96 15.58 12.58 10.92 9.54 11.00 17.62 21.21 21.85 22.69 23.08 22.56 21.37 18.97 15.99 16.91 16.00 15.33 14.22 14.38 14.21 14.17 14.01 13.91 14.77 19.33 18.45 18.00 18.51 18.78 19.95 24.41 23.31 23.99 24.14 22.65 23.93
22.78 17.13 12.24 10.43 9.72 10.73 11.16 12.40 10.11 7.67 6.62 8.86 10.42 15.51 14.23 20.61 20.63 20.21 19.08 14.67 13.25 13.26 13.70 13.78 13.97 13.54 13.32 13.58 12.62 12.77 12.86 17.12 17.33 15.58 16.43 16.10 17.98 21.54 22.86 23.55 22.32 23.88 24.22
25.03 20.47 16.89 15.63 12.17 13.08 11.15 9.04 11.14 9.25 9.62 7.66 9.97 11.22 13.91 15.51 13.79 13.67 14.24 13.24 12.49 12.34 12.01 12.12 12.31 12.57 12.39 12.55 12.63 12.65 12.92 13.50 16.81 15.79 14.01 14.27 15.11 16.40 17.01 18.33 16.61 16.31 17.70
21.03 20.11 16.44 16.22 15.59 12.59 11.47 8.08 8.94 9.08 9.05 6.29 8.37 2.12 13.32 14.02 12.97 12.84 12.86 11.77 11.56 11.13 10.52 10.69 10.62 10.79 11.22 11.41 11.45 10.81 12.00 13.14 14.15 15.27 13.78 13.15 11.31 12.39 15.06 13.67 14.12 15.30 16.91
24.40 20.05 17.66 15.59 14.02 10.08 10.41 7.31 6.09 5.69 6.54 4.29 5.18 5.95 12.43 11.99 12.65 12.50 12.57 11.75 11.36 11.31 11.19 10.21 9.09 9.10 9.68 9.31 9.56 8.97 9.48 10.43 11.53 12.04 12.86 11.57 10.96 11.15 11.21 11.74 11.93 13.85 15.18
24.63 17.61 15.86 15.93 13.32 8.65 5.02 4.26 1.58 -1.50 4.07 1.93 1.94 5.51 7.78 9.07 10.80 11.59 9.87 10.19 10.99 10.27 9.87 9.47 8.21 7.67 8.11 7.90 8.54 9.25 8.14 7.92 8.46 9.45 10.10 8.03 10.17 9.88 9.40 11.87 11.85 11.91 12.18
19.27 12.44 12.37 11.53 5.39 6.29 1.76 -0.60 -1.87 1.04 2.84 2.48 -2.95 1.76 4.98 7.82 9.73 9.68 10.25 8.64 9.41 8.94 8.59 7.84 7.78 7.22 7.57 7.51 7.42 7.54 7.23 7.80 7.15 7.04 5.44 5.43 7.34 7.17 8.07 10.11 11.48 9.98 10.57
23.24 22.34 20.71 12.98 5.75 5.02 4.62 3.01 -1.87 -6.40 -5.49 -2.95 -2.77 -0.23 5.67 5.84 9.72 7.39 9.62 9.27 9.41 8.31 8.48 7.75 7.06 6.84 6.83 7.32 6.23 5.37 3.65 4.30 4.59 3.29 6.64 5.14 3.83 3.50 2.81 5.07 3.81 6.93 7.61
24.32 24.12 23.06 14.28 9.10 6.40 6.87 6.66 2.12 -5.13 -4.58 -3.50 -3.50 -0.97 4.02 4.00 6.09 5.19 9.29 10.99 10.09 9.16 8.82 7.86 7.04 5.88 6.08 8.38 7.31 6.17 2.24 2.18 3.96 3.46 3.70 6.08 3.92 2.97 2.45 2.94 2.85 4.43 4.01

GFSGL_sfc_wetblb_021.txt.gz
Wetbulb
47.42 45.03 45.45 44.85 44.33 42.48 41.05 41.42 41.85 42.94 43.88 42.97 42.07 41.47 40.64 40.24 40.87 41.38 40.95 40.83 39.91 39.13 39.12 38.31 37.73 38.12 37.02 37.09 37.30 36.75 35.94 35.54 32.25 34.79 37.24 38.59 38.19 38.36 38.95 40.09 40.50 40.35 40.52
45.19 45.27 44.74 43.66 41.84 40.07 40.11 40.95 42.12 41.45 41.77 41.77 41.28 39.73 39.03 38.76 39.87 38.90 37.11 37.08 36.27 35.39 36.07 36.14 35.57 35.59 35.59 36.16 35.70 34.90 35.04 35.56 33.66 31.49 34.48 35.47 36.05 37.41 37.79 37.72 37.88 38.63 39.33
44.67 44.43 43.63 41.48 39.61 39.61 40.73 40.60 41.54 40.79 39.94 39.73 38.96 38.58 39.12 38.27 36.36 35.74 35.30 34.97 34.98 34.92 34.76 34.06 33.79 33.82 32.79 33.22 33.17 32.63 33.19 33.20 33.41 31.76 31.32 34.22 34.68 35.65 35.21 36.23 36.45 37.46 37.88
43.89 43.57 42.37 40.27 40.74 40.51 39.90 39.74 39.99 40.27 39.64 39.94 39.31 37.13 36.03 35.22 34.74 34.58 34.45 34.37 33.93 33.57 33.69 33.13 32.60 32.12 31.67 31.28 31.04 31.22 31.43 31.13 31.45 30.69 30.55 31.31 32.38 34.11 34.02 32.57 32.76 35.77 35.38
42.76 42.33 41.62 41.06 41.79 40.97 40.56 40.97 40.72 40.53 39.99 39.81 36.61 34.15 33.48 32.96 32.84 32.90 33.17 32.91 32.35 32.11 32.64 32.54 32.60 32.11 31.44 31.12 30.94 31.21 30.86 29.52 28.66 27.67 27.46 29.15 29.48 29.68 29.17 31.53 31.33 33.22 34.55
41.69 41.51 41.00 40.95 41.28 40.75 40.16 40.88 40.74 40.58 39.32 35.28 33.44 32.47 32.42 31.99 31.03 31.34 31.47 31.71 31.14 29.94 29.49 30.43 30.97 30.68 30.77 30.03 29.99 30.11 29.84 28.17 27.71 28.10 27.93 27.52 28.47 30.06 31.02 30.53 30.62 29.30 28.72
40.22 40.91 39.82 38.84 38.95 39.25 37.67 35.47 33.99 33.87 33.71 32.66 32.15 31.89 31.35 31.25 29.79 30.04 29.76 30.14 29.79 29.64 29.68 29.51 29.36 30.08 30.32 30.56 29.62 29.12 29.30 29.70 29.06 29.07 27.29 27.94 28.10 29.98 30.62 29.96 30.02 30.11 30.06
38.26 38.41 37.43 36.06 35.21 34.66 34.17 33.52 33.15 32.58 31.58 31.28 31.06 30.99 30.41 29.94 28.77 28.76 28.93 30.26 29.78 29.38 29.51 29.60 29.20 29.07 28.92 28.25 28.40 28.90 29.85 30.31 30.64 30.88 30.43 30.86 31.37 32.17 31.78 31.15 30.98 30.97 32.39
35.55 34.91 34.79 34.04 33.49 33.12 32.13 31.33 31.78 31.34 30.96 30.58 30.47 29.66 28.90 28.82 28.06 28.00 28.73 29.32 28.53 28.38 29.18 28.78 28.73 28.22 29.23 30.18 29.42 29.23 29.34 30.20 31.87 32.13 32.13 32.18 32.29 32.13 32.38 32.02 30.05 28.63 28.47
35.03 35.16 34.46 33.12 32.28 31.38 30.72 30.49 30.74 30.64 29.50 29.57 28.36 28.77 27.90 27.81 27.28 27.66 28.30 28.66 27.38 27.45 28.90 29.59 29.30 29.29 28.95 29.36 30.29 28.64 27.04 27.98 28.72 29.41 30.05 31.05 32.26 32.95 31.96 32.82 32.38 28.83 28.52
36.24 34.30 33.06 32.63 31.50 31.22 30.29 30.30 29.72 29.45 28.51 27.52 26.98 27.60 27.45 27.31 27.31 27.09 27.11 27.91 26.95 27.18 27.39 28.03 29.77 29.43 29.97 29.74 27.78 27.81 27.46 28.72 28.45 28.84 29.14 29.97 31.16 32.08 32.44 33.51 32.99 32.26 29.91
33.96 32.78 32.44 32.06 30.86 29.91 29.38 29.42 28.83 28.44 27.34 26.15 25.90 26.43 27.29 27.21 26.38 26.04 26.49 26.97 27.45 27.24 27.16 28.75 30.17 27.58 26.78 26.62 26.58 26.59 26.89 27.41 29.06 28.95 28.87 28.71 29.31 30.33 31.53 32.29 33.22 33.52 34.23
32.48 31.83 31.16 30.81 29.89 29.84 28.80 28.07 27.64 27.71 26.25 25.63 25.54 24.85 25.11 26.25 26.61 25.60 26.23 26.59 26.45 27.22 28.90 28.09 26.72 25.13 24.48 25.21 25.22 25.58 25.82 27.10 27.13 27.57 28.40 29.40 30.26 31.14 32.37 32.37 33.36 33.31 33.62
31.35 30.46 30.53 29.94 29.63 30.08 29.47 28.25 27.62 27.13 25.67 24.80 24.38 23.95 24.08 24.38 24.92 26.14 26.53 27.20 26.32 27.31 26.57 27.34 24.97 22.93 23.15 23.55 24.90 25.91 26.40 26.25 25.73 26.57 27.95 30.06 31.39 30.58 30.63 31.91 31.01 31.14 30.33
30.16 29.83 29.57 29.12 28.47 28.29 27.72 27.55 27.30 27.67 25.91 25.05 24.32 24.39 22.96 22.26 23.84 25.92 25.34 25.15 25.79 24.78 25.45 24.22 22.26 21.45 21.96 22.53 23.24 23.73 25.29 25.62 25.44 26.13 27.34 28.62 29.78 30.32 29.93 30.77 30.75 30.58 29.27
29.18 29.02 28.46 28.10 28.08 27.39 26.69 26.39 26.68 25.50 25.55 25.38 24.79 24.36 24.49 23.93 24.71 24.88 24.12 24.20 23.95 23.13 22.13 19.88 19.25 19.63 19.53 20.25 20.86 21.52 23.05 23.48 24.21 24.57 26.08 27.29 28.27 28.92 28.69 30.12 29.76 29.19 28.74
27.95 27.77 27.79 26.00 27.10 26.25 25.76 24.94 23.31 25.10 23.73 23.39 23.33 23.08 22.90 22.96 23.58 23.43 22.44 21.93 21.48 20.75 18.77 18.25 17.71 17.71 18.35 19.53 20.02 20.23 20.34 22.46 23.74 23.58 24.18 24.87 26.60 29.05 28.65 28.94 29.38 29.51 28.79
26.43 22.55 26.49 27.32 27.15 26.33 25.60 24.90 23.86 22.40 20.99 21.71 21.95 21.46 21.09 21.66 21.80 21.34 20.46 19.28 17.49 17.67 17.08 16.77 16.46 16.47 17.19 17.69 18.49 18.96 20.25 21.74 22.58 22.29 22.82 23.42 24.61 26.12 27.19 27.80 28.18 28.53 29.30
27.64 28.24 27.55 27.22 26.42 24.68 25.22 24.82 23.86 22.69 21.89 21.12 20.99 20.43 19.65 19.91 19.82 19.19 18.56 16.54 15.26 15.03 14.94 15.38 15.91 15.94 15.99 16.74 17.63 18.23 19.54 20.39 20.99 21.75 22.19 22.24 23.13 24.18 24.37 25.26 26.43 25.88 27.02
27.86 27.47 25.30 27.25 27.07 26.18 25.12 23.78 22.70 22.12 21.21 20.40 19.55 18.14 18.98 18.80 17.26 16.77 16.98 15.93 14.97 14.35 14.15 14.07 14.59 15.12 15.57 16.07 17.25 17.39 18.96 19.91 20.02 21.02 21.44 22.33 22.44 23.35 23.40 23.65 24.68 25.35 25.52
28.74 27.98 25.06 26.68 26.47 25.31 24.42 23.36 22.46 21.73 20.49 19.84 19.43 17.88 15.04 16.93 16.33 15.87 15.89 14.85 13.97 13.26 13.13 13.43 13.86 14.43 14.79 15.55 15.98 16.76 17.02 18.28 18.43 18.98 20.56 21.42 21.68 21.73 23.21 24.02 24.60 24.63 24.73
27.33 26.92 26.08 26.28 25.95 25.35 24.48 23.17 21.93 20.54 19.99 19.17 19.32 18.46 14.75 17.44 16.48 15.90 15.27 13.91 13.82 13.78 13.91 13.47 13.24 13.44 13.55 13.37 13.72 14.94 15.77 16.02 16.87 17.19 18.95 20.07 21.76 22.30 23.05 23.28 23.55 23.58 23.54
27.05 26.69 26.00 25.85 25.34 22.26 23.75 23.09 21.70 21.04 20.28 19.99 18.79 18.01 17.78 16.98 16.28 15.88 15.34 14.58 13.89 13.03 13.14 13.31 12.99 12.43 13.28 13.57 13.79 13.73 13.53 13.80 14.56 15.38 16.51 19.25 20.76 20.88 22.26 22.18 21.42 21.47 21.05
26.57 25.47 24.71 25.32 25.09 24.37 23.35 22.64 21.91 16.89 17.88 19.58 19.64 18.68 17.84 17.14 16.42 15.52 15.15 15.13 14.26 13.71 13.33 12.27 12.17 11.72 12.07 12.55 13.30 13.02 12.12 12.58 13.88 15.06 15.26 16.72 18.28 18.63 19.72 20.08 20.30 19.51 20.37
27.03 27.03 27.20 26.84 25.91 24.74 23.13 22.75 21.65 20.80 19.79 19.32 19.49 19.40 18.51 17.74 16.78 16.14 16.37 16.11 14.57 13.87 12.65 11.95 11.45 11.30 11.29 11.22 11.44 10.48 8.10 7.99 10.43 10.62 16.14 16.40 15.29 15.37 14.87 16.89 16.89 18.62 17.20
27.49 27.47 27.48 27.49 26.11 25.44 24.02 22.77 22.57 21.16 19.54 20.14 19.54 18.98 18.51 17.26 16.34 16.44 16.03 15.77 15.09 14.11 12.59 12.20 11.69 10.78 10.90 12.02 10.90 10.01 8.22 7.34 8.96 8.26 14.40 15.90 14.42 13.96 15.41 14.90 14.54 16.84 15.96

GFSGL_sfc_wetblb_024.txt.gz
Wetbulb
51.74 50.82 50.27 49.71 48.68 47.40 46.07 45.91 46.33 45.84 43.82 42.20 42.05 41.06 40.11 39.99 40.50 40.76 40.60 40.62 39.89 39.73 40.16 39.19 39.35 40.53 39.92 39.60 39.74 38.93 37.81 37.40 34.28 37.37 39.41 41.01 40.97 41.10 41.43 42.58 42.78 42.70 42.93
49.30 49.07 48.51 48.35 47.16 45.74 44.96 45.09 45.52 43.44 43.21 41.40 40.30 40.23 40.98 40.73 41.20 40.78 40.00 39.56 38.50 38.36 38.65 38.53 37.72 37.77 37.90 38.57 38.48 37.88 37.79 38.17 36.29 34.41 37.48 38.10 38.97 40.48 40.71 40.55 40.39 41.11 41.71
47.07 46.91 46.97 46.52 45.28 44.70 44.15 43.18 42.30 42.33 42.60 42.48 42.51 41.78 40.94 40.50 39.79 39.51 38.81 38.45 38.44 37.93 37.62 37.07 36.92 37.02 36.47 36.84 36.71 36.32 36.54 36.34 36.43 34.95 34.67 37.32 37.93 38.81 38.36 39.12 39.21 39.90 40.27
45.81 45.70 45.18 44.15 42.86 42.72 43.09 42.32 43.02 43.46 42.64 42.41 42.10 40.96 41.09 39.08 38.28 37.86 37.13 36.92 36.75 36.67 36.63 36.40 36.25 35.73 35.39 35.21 34.92 34.58 34.44 34.54 34.76 34.08 34.06 34.49 35.89 37.40 37.58 36.04 35.89 38.48 38.28
44.39 44.02 42.93 44.76 42.52 41.87 40.50 40.88 42.19 42.73 42.18 41.48 40.40 39.47 38.69 37.88 36.90 34.84 34.93 35.15 35.03 34.80 35.16 34.89 35.08 34.77 32.77 32.65 32.68 33.21 33.66 33.52 33.39 31.34 30.16 31.27 32.31 32.30 32.25 34.20 32.86 34.62 36.57
43.47 42.58 41.75 42.40 42.15 42.06 42.23 40.89 40.66 39.61 39.25 38.91 38.16 37.51 36.99 36.43 31.36 30.79 31.15 32.99 33.56 33.56 33.23 33.74 34.04 33.52 33.44 32.47 31.75 31.24 30.98 29.29 28.65 28.73 28.92 28.90 30.04 31.69 32.78 32.25 32.59 32.25 30.77
42.41 41.54 40.94 40.72 40.00 39.68 39.40 38.80 38.40 38.08 37.87 37.16 36.89 36.45 35.81 35.71 30.27 29.96 29.54 31.85 32.40 33.32 33.43 33.02 32.76 33.40 32.52 31.73 31.09 31.03 30.27 29.90 29.24 30.10 28.48 28.94 29.11 31.24 31.79 31.04 31.80 31.60 31.93
40.26 40.41 39.91 39.38 38.46 38.50 38.13 37.51 37.35 37.02 36.39 35.95 35.68 35.31 34.65 34.29 30.25 29.20 28.58 31.50 32.69 32.74 32.80 32.66 31.90 30.85 30.81 29.90 29.67 29.99 30.38 31.06 31.65 31.88 32.08 32.60 32.73 32.87 32.73 32.56 32.64 32.76 33.64
39.16 38.42 38.71 38.88 37.65 37.17 36.71 35.90 36.19 35.63 35.23 34.77 34.30 33.61 32.78 32.56 30.31 28.47 28.81 30.35 30.53 30.18 30.12 30.55 31.15 30.63 30.42 30.80 30.41 29.96 30.50 31.63 32.79 32.91 32.80 32.77 32.52 32.27 32.83 33.78 31.54 30.56 30.50
38.67 38.61 39.00 38.14 37.27 36.30 35.54 35.14 35.29 35.08 33.89 33.55 32.16 32.35 31.11 31.01 29.09 28.09 28.31 29.27 28.02 28.49 29.08 30.23 30.24 30.65 30.02 29.98 30.42 30.60 28.70 28.66 29.95 31.45 31.29 32.36 32.40 32.97 31.98 33.37 33.28 30.33 30.45
39.43 39.08 38.36 37.78 36.69 35.66 35.34 35.18 34.34 33.78 32.65 31.59 31.11 30.05 30.01 29.83 29.40 28.06 27.41 27.64 27.69 27.07 27.77 29.00 31.10 30.48 28.27 27.99 27.85 28.73 27.41 28.94 28.15 29.12 30.52 31.90 32.88 32.66 33.41 34.58 34.50 33.73 31.21
39.41 38.11 37.38 36.67 35.31 34.58 34.54 34.50 33.79 33.09 30.96 30.67 29.07 29.66 30.51 30.90 28.50 27.82 26.94 27.67 27.79 27.49 27.38 29.32 30.60 28.02 27.03 26.43 26.70 27.20 26.63 27.13 29.81 30.38 30.78 31.31 31.70 32.15 33.56 34.46 35.00 34.86 35.61
37.59 36.76 36.13 35.28 34.80 35.00 34.06 33.21 32.11 31.21 29.06 27.90 27.50 26.93 27.25 28.83 29.08 27.18 27.01 27.17 26.87 27.81 29.24 28.11 27.89 26.26 25.89 26.32 26.47 25.46 26.60 28.84 28.07 27.87 28.88 30.03 31.72 33.08 32.93 33.45 34.51 34.97 34.80
36.04 35.57 35.23 34.40 33.34 34.48 33.86 32.64 30.94 28.86 27.40 26.41 26.24 25.64 26.04 26.71 27.29 26.69 27.23 27.26 26.51 27.70 26.78 28.32 26.86 25.67 26.42 26.60 27.04 27.23 28.46 29.09 28.09 27.85 28.27 30.75 32.91 33.59 31.64 33.31 32.41 33.21 32.31
34.86 34.15 33.63 33.23 33.14 32.38 31.86 31.21 30.12 29.55 27.51 26.43 26.15 25.82 24.62 23.92 24.31 25.40 25.32 24.71 25.55 25.02 25.40 26.80 25.31 24.46 24.92 25.31 25.45 26.01 27.57 27.50 26.96 28.29 28.91 29.35 30.61 32.49 31.18 31.89 30.68 31.52 30.90
32.98 32.81 33.06 32.45 32.51 31.31 30.55 30.01 28.65 26.69 25.37 24.95 24.37 24.63 25.40 24.08 23.99 24.05 23.81 23.51 23.18 23.10 24.12 22.63 22.17 21.95 22.72 23.60 23.90 24.46 25.59 25.25 25.98 26.73 27.84 28.29 28.16 30.35 30.82 32.18 31.19 30.12 29.82
31.90 31.70 32.01 30.44 30.46 29.63 29.03 27.59 26.62 28.49 25.88 24.29 23.14 23.05 22.53 22.28 22.87 22.74 22.32 21.89 21.79 22.01 21.05 20.98 20.49 20.38 21.04 22.22 22.52 23.12 22.97 24.40 25.65 25.67 26.19 26.38 26.80 27.77 28.72 30.16 31.04 31.71 30.71
30.98 28.40 30.84 30.53 29.66 28.99 28.21 27.51 26.99 25.64 24.67 26.22 25.04 22.32 21.69 21.52 21.44 21.08 20.83 21.90 21.27 20.67 19.55 19.33 18.95 19.69 20.10 20.38 21.34 21.34 22.50 23.85 24.22 24.54 25.05 25.73 25.96 26.31 26.71 27.10 28.09 28.53 29.79
30.48 29.99 29.80 29.87 29.50 28.36 28.42 27.44 26.60 25.57 25.07 25.30 25.57 24.42 23.39 21.67 20.84 20.61 20.29 20.04 19.04 18.46 18.11 18.34 18.93 19.08 19.47 20.14 20.98 21.37 22.50 22.89 23.39 23.92 24.26 24.64 25.51 25.90 25.99 26.10 26.70 27.22 27.30
29.66 28.48 28.96 29.03 28.84 28.39 27.80 26.53 25.78 25.15 25.00 24.82 24.19 22.78 22.53 22.16 20.77 20.36 20.35 19.47 18.73 18.18 17.72 17.64 18.35 18.82 19.07 19.45 20.40 21.07 21.84 22.15 22.38 22.76 23.39 24.28 25.08 25.81 25.25 25.54 26.41 26.40 26.74
29.64 29.13 28.18 28.29 28.15 27.76 27.04 26.12 25.72 24.96 24.87 24.39 24.17 22.49 17.39 20.30 19.61 19.31 18.74 17.96 16.89 17.25 17.16 17.32 17.94 18.35 18.68 18.73 18.92 20.08 20.57 21.28 21.22 21.71 22.51 23.45 24.88 24.59 25.57 26.12 26.41 27.02 26.68
28.49 27.48 27.98 27.97 28.13 27.58 27.14 26.54 25.68 24.86 24.38 23.87 23.82 23.64 17.58 21.66 20.19 19.38 18.80 17.99 17.63 17.20 17.53 17.67 17.59 17.72 17.69 17.63 17.73 18.54 18.95 19.41 19.97 20.15 20.87 22.51 23.82 24.43 24.99 25.08 24.93 25.14 25.11
28.58 28.41 27.87 27.69 28.11 26.91 27.26 26.54 26.02 25.45 24.70 24.57 23.62 23.23 22.81 21.46 20.63 19.58 19.23 18.52 17.81 17.26 16.87 16.72 17.14 16.37 17.36 17.98 18.52 18.45 17.09 17.14 18.48 19.61 19.38 21.19 22.78 23.02 23.85 23.58 23.40 23.48 23.48
28.63 28.91 28.07 28.03 28.65 28.02 27.40 27.01 26.44 24.54 24.19 24.25 23.89 23.28 22.76 22.17 21.55 19.97 19.97 19.68 18.53 18.12 17.31 16.31 15.68 14.94 15.21 15.86 17.36 17.25 16.21 15.15 17.27 18.45 19.56 20.43 21.10 21.86 22.72 22.46 22.86 22.22 22.46
30.12 29.69 29.33 29.13 29.22 28.96 28.24 27.08 26.56 26.05 25.37 24.67 24.17 23.64 23.07 22.40 21.52 21.29 21.13 20.36 18.75 18.08 16.36 15.95 15.62 15.03 14.40 14.08 14.19 14.09 13.11 12.15 13.96 13.47 19.91 20.19 19.33 19.42 19.86 21.05 20.89 22.07 21.22
29.57 28.85 29.32 29.48 28.46 28.39 28.01 27.20 26.82 26.73 25.46 25.22 24.36 23.66 23.00 22.04 21.55 21.29 20.33 19.26 18.77 17.92 15.83 16.46 15.62 14.24 14.28 15.31 13.19 12.24 11.36 11.45 12.25 13.14 18.42 19.61 18.24 17.87 18.60 18.37 18.33 20.24 19.70

GFSGL_sfc_wetblb_027.txt.gz
Wetbulb
50.04 49.52 49.53 49.43 49.61 49.15 47.51 47.11 46.75 45.62 44.35 44.36 44.14 42.74 41.55 42.32 42.37 42.30 42.09 41.59 40.42 39.88 40.21 39.86 39.64 40.71 40.05 40.09 40.42 40.21 39.04 38.08 34.32 37.07 39.07 41.37 41.94 42.32 42.58 44.05 43.94 43.99 43.87
47.57 47.39 47.42 48.15 48.03 47.36 46.40 44.26 45.26 44.77 45.02 44.19 43.51 43.18 42.73 42.68 41.85 41.07 40.52 39.65 39.10 38.53 39.24 39.05 38.20 38.20 38.00 38.59 38.29 37.49 37.94 38.46 37.04 35.21 37.65 38.32 39.43 41.34 41.59 42.08 41.27 41.83 43.04
46.40 46.57 46.86 46.50 46.19 45.07 44.64 44.75 44.67 44.17 43.66 43.42 42.81 42.16 41.72 41.43 40.45 40.29 39.46 38.96 38.41 38.04 37.87 37.41 37.19 37.16 36.39 37.03 37.03 36.70 36.96 36.64 36.99 35.76 35.37 38.16 38.83 39.70 39.50 40.46 40.80 41.55 41.06
46.12 45.62 45.01 45.15 45.19 44.37 44.32 40.97 42.92 42.93 42.24 42.50 42.43 41.29 40.83 40.12 39.49 39.17 38.67 37.28 36.75 36.77 36.97 36.76 36.56 36.10 35.84 36.02 35.74 35.75 35.41 34.99 34.93 34.91 35.23 35.72 36.87 38.43 38.61 37.32 37.32 39.86 39.57
44.93 44.68 44.24 43.31 43.62 44.04 43.35 42.75 42.98 42.56 41.02 40.96 40.23 39.87 39.54 38.84 37.79 36.53 35.88 34.74 34.07 34.40 35.38 35.89 36.47 36.53 34.38 33.93 32.94 32.65 32.85 32.48 33.13 33.27 33.50 34.22 33.96 33.30 33.46 35.74 35.27 36.54 37.68
44.44 43.75 43.56 41.82 41.45 41.31 41.56 40.78 40.52 39.94 39.89 39.71 38.68 38.42 37.90 37.48 31.17 30.94 31.33 32.58 32.27 32.63 33.11 34.52 35.77 35.67 35.27 33.98 33.41 32.75 32.04 29.56 28.64 29.06 29.40 29.98 30.59 32.11 32.99 32.45 33.47 32.40 31.05
43.59 42.98 41.48 41.32 40.81 40.72 40.55 39.94 39.32 38.60 38.69 37.92 37.69 37.54 36.79 36.70 30.95 30.55 30.15 31.52 30.96 32.03 33.02 33.47 33.51 34.58 34.16 34.07 32.55 31.92 31.44 31.32 30.17 29.97 28.14 29.03 29.36 31.50 32.23 31.66 31.93 32.15 31.72
42.78 42.13 41.34 40.33 39.80 39.53 38.85 38.09 38.40 37.79 37.20 36.81 36.38 36.20 35.60 35.41 31.41 29.96 29.47 30.63 31.31 31.67 32.40 32.29 32.18 32.13 32.35 31.24 30.67 30.56 30.99 31.86 32.46 32.47 31.63 31.94 33.11 34.24 34.27 33.41 33.30 33.08 34.21
41.02 40.58 40.07 39.82 38.69 38.34 37.86 37.36 37.16 36.79 36.12 35.74 35.55 34.59 33.03 33.15 32.26 29.70 29.17 29.68 29.34 29.34 30.23 31.11 31.08 31.02 31.59 31.80 30.88 30.37 29.72 31.25 33.26 33.68 33.39 33.30 33.04 32.91 33.27 32.88 30.55 29.28 30.33
40.44 40.00 40.09 39.37 38.32 37.87 37.45 36.53 36.63 36.31 35.16 34.96 33.46 32.48 31.19 30.81 31.52 30.01 29.21 29.39 27.88 28.22 29.37 29.81 29.98 30.40 30.46 30.76 30.56 29.20 27.64 29.01 30.38 30.64 31.42 32.20 32.77 33.47 32.52 33.09 31.86 28.71 28.86
41.46 40.82 39.94 39.27 38.30 38.00 36.81 36.78 36.06 35.43 34.50 33.57 32.55 32.10 31.62 31.97 31.78 30.23 29.04 28.99 28.09 28.29 27.74 28.16 30.20 30.50 28.89 28.13 27.86 27.92 27.52 29.27 28.42 28.83 29.78 31.27 33.01 34.06 34.40 34.71 34.26 32.60 30.07
41.26 40.12 38.78 38.27 37.82 36.85 36.19 36.05 35.47 34.44 33.21 32.85 32.25 31.50 31.60 32.01 30.30 29.79 27.78 27.73 28.11 27.29 26.81 29.32 30.40 28.16 28.00 27.40 27.13 27.43 27.93 27.17 28.57 29.64 30.34 30.51 32.34 33.94 34.26 35.33 35.74 35.73 35.87
39.82 38.56 37.88 37.82 37.01 36.65 35.57 34.68 33.53 33.16 31.38 29.91 28.91 28.93 29.35 29.92 30.27 29.32 27.42 27.10 26.92 27.22 28.66 27.83 27.08 28.34 27.27 27.64 28.53 27.35 26.95 28.14 29.79 28.62 28.89 29.57 31.54 33.73 34.64 34.54 35.21 35.27 36.02
37.83 37.47 36.83 36.14 34.88 35.30 35.13 34.32 32.43 31.42 29.02 27.56 27.41 26.97 27.58 26.88 27.95 27.40 26.88 26.99 26.18 26.20 26.23 26.58 28.35 27.37 27.67 28.35 29.11 29.20 29.76 30.14 28.80 28.78 29.15 30.47 32.61 33.27 33.77 33.92 32.34 33.35 33.04
36.84 35.59 35.29 35.05 34.55 33.39 33.66 32.85 31.78 31.40 29.41 27.38 26.62 25.84 24.79 23.89 24.98 24.90 24.93 24.77 24.94 24.24 24.14 27.09 25.83 24.74 24.23 25.86 26.95 27.39 28.57 28.35 28.00 28.33 28.72 29.53 29.90 30.76 32.50 33.97 32.32 31.64 30.62
33.88 33.86 34.23 33.72 32.78 32.23 31.54 31.61 31.43 28.90 26.87 26.07 25.04 24.42 25.49 24.08 23.80 23.98 23.92 23.63 23.76 23.32 23.75 23.38 22.81 22.38 21.86 23.05 23.96 24.82 26.23 25.92 25.95 27.02 27.73 27.85 27.57 28.48 29.06 31.67 32.95 32.30 30.41
32.83 32.57 33.18 31.40 31.59 30.71 30.20 29.16 27.35 29.80 28.46 27.18 25.47 23.76 22.93 22.61 22.99 22.94 22.94 22.98 23.84 22.99 21.88 21.77 21.09 20.82 20.92 21.73 22.94 23.20 23.27 25.29 26.31 25.79 26.47 26.73 26.90 27.06 28.14 28.55 30.00 30.77 30.55
32.29 30.76 31.94 31.22 30.66 29.88 29.16 28.52 27.99 27.18 26.40 27.32 27.02 24.49 23.35 23.26 22.82 22.31 22.24 22.94 22.13 22.49 20.82 20.30 19.74 20.52 20.84 20.24 20.91 21.41 22.56 24.45 24.94 25.05 25.79 26.25 26.56 26.85 27.51 26.71 27.18 27.70 27.95
31.63 31.11 30.86 30.59 30.48 29.94 29.42 29.59 28.52 27.51 27.03 26.69 27.84 26.43 26.07 24.03 23.90 23.41 22.91 21.11 19.58 19.58 19.50 19.41 20.16 20.09 19.85 20.18 21.33 22.19 23.13 23.42 23.84 24.05 24.94 25.13 26.01 26.74 26.34 26.58 26.95 27.42 28.06
32.06 29.74 29.35 29.59 29.67 29.67 29.41 28.16 27.18 27.45 26.26 26.95 26.15 25.99 24.98 22.69 22.80 22.22 22.37 21.24 19.65 18.75 19.05 18.77 19.20 19.71 19.70 19.67 20.56 21.54 22.50 22.74 22.49 22.23 23.53 24.91 26.07 26.85 25.91 26.42 26.88 26.69 26.89
30.98 30.13 29.75 29.44 29.01 29.57 28.68 27.60 27.40 27.14 25.95 26.07 26.47 25.23 20.16 20.67 22.05 21.42 21.36 20.36 19.32 18.37 18.13 18.74 19.26 19.28 19.33 19.32 19.20 19.54 20.01 21.15 21.03 21.51 21.85 23.28 25.42 25.10 25.93 26.57 26.45 26.56 26.33
29.74 28.79 28.54 28.66 29.08 29.04 29.09 27.73 27.37 26.80 26.39 26.00 26.46 25.94 22.19 23.82 22.74 22.21 21.48 20.56 20.50 19.58 18.94 18.33 18.79 18.58 18.20 18.06 18.21 18.51 18.48 18.20 18.77 19.63 20.20 22.02 24.20 24.01 24.85 25.41 25.03 25.29 24.88
30.17 29.80 29.08 28.92 29.75 28.87 28.96 29.21 28.55 28.36 27.45 27.06 26.56 25.19 25.13 24.11 23.01 22.37 21.74 21.33 20.85 19.84 19.27 18.16 17.63 16.84 17.81 18.11 18.84 18.21 16.42 15.04 15.93 18.26 18.67 20.87 21.92 22.42 24.00 23.51 23.35 22.81 23.33
30.10 29.58 28.86 29.37 30.06 29.67 29.60 29.46 29.31 27.56 27.54 26.90 26.93 25.58 25.44 24.26 23.36 22.59 22.10 22.33 20.90 20.46 19.32 18.08 17.46 16.41 16.03 16.37 17.46 17.01 16.24 14.80 15.35 15.75 17.44 20.60 20.03 20.44 21.57 21.68 22.11 22.59 22.16
31.25 30.12 30.26 30.02 29.90 30.02 29.67 29.57 29.34 28.94 28.49 27.98 27.20 25.92 25.46 24.58 23.37 22.95 22.83 22.08 20.86 20.17 18.31 17.59 17.41 16.44 15.94 15.84 14.62 13.96 12.84 12.41 13.56 13.71 18.05 20.22 19.06 18.74 19.55 19.83 19.51 21.60 20.62
30.64 30.33 29.98 30.67 30.28 30.48 29.58 29.11 29.20 29.00 28.37 28.29 27.82 26.89 25.21 24.15 23.64 22.86 22.14 21.08 20.22 19.45 18.25 17.93 17.36 16.19 16.24 17.32 14.75 13.17 11.58 11.29 11.68 12.34 17.32 18.13 16.90 17.38 16.80 18.25 17.25 19.20 18.76